Meteo pe oră la Allo

Astăzi, 18 Ianuarie, Luni

Timp Temperatura Precipitaţii Vânt Presiune Umiditate
00:00 +5°C° 0 mm 2 m/s 725 mmHg 92%
01:00 +5°C° 0 mm 2 m/s 725 mmHg 92%
02:00 +5°C° 0 mm 2 m/s 725 mmHg 92%
03:00 +5°C° 0 mm 2 m/s 725 mmHg 93%
04:00 +5°C° 0 mm 2 m/s 725 mmHg 93%
05:00 +4°C° 0 mm 2 m/s 725 mmHg 93%
06:00 +4°C° 0 mm 2 m/s 725 mmHg 93%
07:00 +5°C° 0 mm 2 m/s 725 mmHg 92%
08:00 +5°C° 0 mm 2 m/s 725 mmHg 91%
09:00 +5°C° 0 mm 2 m/s 725 mmHg 90%
10:00 +7°C° 0 mm 2 m/s 725 mmHg 84%
11:00 +8°C° 0 mm 2 m/s 725 mmHg 78%
12:00 +9°C° 0 mm 3 m/s 725 mmHg 71%
13:00 +10°C° 0 mm 2 m/s 725 mmHg 69%
14:00 +10°C° 0 mm 2 m/s 724 mmHg 68%
15:00 +10°C° 0 mm 2 m/s 724 mmHg 66%
16:00 +9°C° 0 mm 2 m/s 724 mmHg 72%
17:00 +8°C° 0 mm 1 m/s 724 mmHg 78%
18:00 +7°C° 0 mm 1 m/s 724 mmHg 84%
19:00 +6°C° 0 mm 1 m/s 724 mmHg 84%
20:00 +6°C° 0 mm 1 m/s 723 mmHg 84%
21:00 +5°C° 0 mm 1 m/s 723 mmHg 84%
22:00 +5°C° 0 mm 1 m/s 723 mmHg 84%
23:00 +5°C° 0 mm 1 m/s 723 mmHg 84%

Mâine, 19 Ianuarie, Marţi

Timp Temperatura Precipitaţii Vânt Presiune Umiditate
00:00 +4°C° 0 mm 1 m/s 723 mmHg 84%
01:00 +4°C° 0 mm 1 m/s 723 mmHg 84%
02:00 +4°C° 0 mm 1 m/s 722 mmHg 85%
03:00 +3°C° 0 mm 1 m/s 722 mmHg 86%
04:00 +3°C° 0 mm 1 m/s 722 mmHg 87%
05:00 +3°C° 0 mm 1 m/s 721 mmHg 88%
06:00 +2°C° 0 mm 1 m/s 721 mmHg 89%
07:00 +3°C° 0 mm 1 m/s 721 mmHg 87%
08:00 +3°C° 0 mm 1 m/s 721 mmHg 86%
09:00 +4°C° 0 mm 1 m/s 721 mmHg 84%
10:00 +4°C° 0 mm 2 m/s 720 mmHg 80%
11:00 +5°C° 0 mm 2 m/s 720 mmHg 76%
12:00 +7°C° 0 mm 3 m/s 720 mmHg 72%
13:00 +7°C° 0 mm 3 m/s 719 mmHg 70%
14:00 +8°C° 0 mm 3 m/s 719 mmHg 68%
15:00 +8°C° 0 mm 3 m/s 718 mmHg 66%
16:00 +7°C° 0 mm 3 m/s 718 mmHg 72%
17:00 +4°C° 0 mm 3 m/s 717 mmHg 77%
18:00 +4°C° 0 mm 2 m/s 717 mmHg 82%
19:00 +4°C° 0 mm 2 m/s 717 mmHg 83%
20:00 +3°C° 0 mm 2 m/s 717 mmHg 84%
21:00 +2°C° 0 mm 3 m/s 716 mmHg 85%
22:00 +2°C° 0 mm 3 m/s 716 mmHg 85%
23:00 +2°C° 0 mm 3 m/s 715 mmHg 85%

Poimâine, 20 Ianuarie, Miercuri

Timp Temperatura Precipitaţii Vânt Presiune Umiditate
00:00 +2°C° 0 mm 3 m/s 715 mmHg 85%
01:00 +2°C° 0 mm 3 m/s 714 mmHg 85%
02:00 +2°C° 0 mm 3 m/s 713 mmHg 85%
03:00 0°C° 0 mm 4 m/s 713 mmHg 85%
04:00 +1°C° 0 mm 4 m/s 712 mmHg 84%
05:00 +1°C° 0 mm 4 m/s 712 mmHg 83%
06:00 +1°C° 0 mm 4 m/s 712 mmHg 82%
07:00 +2°C° 0 mm 5 m/s 711 mmHg 81%
08:00 +2°C° 0 mm 5 m/s 711 mmHg 80%
09:00 +2°C° 0 mm 6 m/s 710 mmHg 80%
10:00 +4°C° 0 mm 6 m/s 710 mmHg 78%
11:00 +5°C° 0 mm 7 m/s 710 mmHg 76%
12:00 +6°C° 0 mm 8 m/s 709 mmHg 74%
13:00 +6°C° 0 mm 7 m/s 709 mmHg 75%
14:00 +6°C° 0 mm 7 m/s 708 mmHg 77%
15:00 +6°C° 0 mm 7 m/s 707 mmHg 78%
16:00 +5°C° 0 mm 6 m/s 707 mmHg 82%
17:00 +5°C° 0 mm 5 m/s 707 mmHg 85%
18:00 +5°C° 0 mm 4 m/s 707 mmHg 89%
19:00 +5°C° 0.1 mm 4 m/s 707 mmHg 89%
20:00 +5°C° 0.1 mm 4 m/s 707 mmHg 90%
21:00 +5°C° 0.1 mm 4 m/s 708 mmHg 90%
22:00 +5°C° 0.1 mm 3 m/s 708 mmHg 91%
23:00 +5°C° 0.1 mm 3 m/s 708 mmHg 91%

21 Ianuarie, Joi

Timp Temperatura Precipitaţii Vânt Presiune Umiditate
00:00 +6°C° 0.1 mm 2 m/s 708 mmHg 91%
01:00 +5°C° 0 mm 2 m/s 709 mmHg 92%
02:00 +5°C° 0 mm 2 m/s 709 mmHg 92%
03:00 +6°C° 0 mm 1 m/s 709 mmHg 93%
04:00 +6°C° 0 mm 1 m/s 709 mmHg 92%
05:00 +6°C° 0 mm 1 m/s 710 mmHg 92%
06:00 +6°C° 0 mm 1 m/s 710 mmHg 91%
07:00 +7°C° 0 mm 1 m/s 710 mmHg 90%
08:00 +6°C° 0 mm 2 m/s 710 mmHg 88%
09:00 +6°C° 0 mm 2 m/s 710 mmHg 87%
10:00 +8°C° 0 mm 2 m/s 710 mmHg 81%
11:00 +9°C° 0 mm 3 m/s 710 mmHg 75%
12:00 +11°C° 0 mm 3 m/s 710 mmHg 69%
13:00 +11°C° 0 mm 4 m/s 709 mmHg 69%
14:00 +11°C° 0 mm 4 m/s 709 mmHg 69%
15:00 +10°C° 0 mm 5 m/s 708 mmHg 68%
16:00 +10°C° 0.8 mm 4 m/s 708 mmHg 74%
17:00 +10°C° 0.8 mm 3 m/s 708 mmHg 80%
18:00 +9°C° 0.8 mm 2 m/s 708 mmHg 85%
19:00 +8°C° 0.3 mm 2 m/s 708 mmHg 86%
20:00 +8°C° 0.3 mm 2 m/s 708 mmHg 87%
21:00 +7°C° 0.3 mm 2 m/s 708 mmHg 88%
22:00 +7°C° 0 mm 2 m/s 709 mmHg 86%
23:00 +7°C° 0 mm 2 m/s 709 mmHg 84%

22 Ianuarie, Vineri

Timp Temperatura Precipitaţii Vânt Presiune Umiditate
00:00 +6°C° 0 mm 2 m/s 709 mmHg 82%
01:00 +6°C° 0 mm 2 m/s 709 mmHg 82%
02:00 +6°C° 0 mm 2 m/s 709 mmHg 82%
03:00 +5°C° 0 mm 2 m/s 709 mmHg 82%
04:00 +6°C° 0 mm 1 m/s 709 mmHg 83%
05:00 +6°C° 0 mm 1 m/s 708 mmHg 84%
06:00 +5°C° 0 mm 1 m/s 708 mmHg 85%
07:00 +6°C° 0.5 mm 1 m/s 708 mmHg 86%
08:00 +5°C° 0.5 mm 2 m/s 708 mmHg 86%
09:00 +6°C° 0.5 mm 2 m/s 707 mmHg 87%
10:00 +7°C° 0.5 mm 3 m/s 708 mmHg 80%
11:00 +7°C° 0.5 mm 4 m/s 708 mmHg 74%
12:00 +8°C° 0.5 mm 6 m/s 708 mmHg 67%
13:00 +8°C° 0 mm 7 m/s 708 mmHg 63%
14:00 +9°C° 0 mm 7 m/s 708 mmHg 59%
15:00 +9°C° 0 mm 8 m/s 708 mmHg 55%
16:00 +8°C° 0 mm 7 m/s 708 mmHg 62%
17:00 +5°C° 0 mm 6 m/s 708 mmHg 68%
18:00 +5°C° 0 mm 5 m/s 709 mmHg 74%
19:00 +4°C° 0.6 mm 6 m/s 710 mmHg 76%
20:00 +4°C° 0.6 mm 7 m/s 711 mmHg 78%
21:00 +3°C° 0.6 mm 7 m/s 712 mmHg 80%
22:00 +3°C° 0.1 mm 6 m/s 712 mmHg 81%
23:00 +3°C° 0.1 mm 4 m/s 712 mmHg 82%

23 Ianuarie, Sâmbătă

Timp Temperatura Precipitaţii Vânt Presiune Umiditate
00:00 +2°C° 0.1 mm 3 m/s 713 mmHg 83%
01:00 +2°C° 0.1 mm 3 m/s 713 mmHg 82%
02:00 +2°C° 0.1 mm 3 m/s 713 mmHg 81%
03:00 +2°C° 0.1 mm 3 m/s 714 mmHg 81%
04:00 +2°C° 0.2 mm 3 m/s 714 mmHg 81%
05:00 +1°C° 0.2 mm 4 m/s 714 mmHg 82%
06:00 +1°C° 0.2 mm 4 m/s 714 mmHg 82%
07:00 +2°C° 0.2 mm 3 m/s 715 mmHg 81%
08:00 +3°C° 0.2 mm 3 m/s 716 mmHg 79%
09:00 +3°C° 0.2 mm 3 m/s 716 mmHg 78%
10:00 +4°C° 0 mm 4 m/s 716 mmHg 72%
11:00 +5°C° 0 mm 4 m/s 716 mmHg 66%
12:00 +7°C° 0 mm 5 m/s 716 mmHg 61%
13:00 +7°C° 0 mm 5 m/s 716 mmHg 61%
14:00 +7°C° 0 mm 5 m/s 716 mmHg 62%
15:00 +7°C° 0 mm 4 m/s 715 mmHg 63%
16:00 +7°C° 0.4 mm 3 m/s 715 mmHg 70%
17:00 +6°C° 0.4 mm 2 m/s 714 mmHg 77%
18:00 +6°C° 0.4 mm 2 m/s 714 mmHg 84%
19:00 +6°C° 0.6 mm 1 m/s 714 mmHg 86%
20:00 +6°C° 0.6 mm 1 m/s 713 mmHg 89%
21:00 +6°C° 0.6 mm 1 m/s 713 mmHg 91%
22:00 +6°C° 0.5 mm 1 m/s 712 mmHg 91%
23:00 +6°C° 0.5 mm 1 m/s 712 mmHg 92%
Arată mai mult

Formular de consimțământ

Meteoprog și furnizorii noștri de servicii pot stoca și accesa date personale, precum cookies, identificatori de dispozitiv sau alte tehnologii similare pe dispozitivul dumneavoastră și procesa astfel de date pentru a personaliza conținutul și reclamele, dar și pentru a oferi caracteristici de social media și pentru a analiza traficul.

  • Stocarea și/sau accesarea informațiilor pe dispozitivul dumneavoastră

    Cookies, identificatori de dispozitiv sau alte informații pot fi stocate sau accesate pe dispozitiv în scopurile indicate mai sus.

  • Reclame și conținut personalizat, evaluarea reclamelor și a conținutului, informații despre audiențe și dezvoltarea produselor

    Reclamele și conținutul pot fi personalizate pe baza unui profil. Pot fi adăugate date suplimentare pentru a personaliza mai bine reclamele și conținutul. Performanța reclamelor și conținutului poate fi măsurată. Pot fi obținute informații despre utilizatorii care au văzut reclamele și conținutul. Aceste date pot fi utilizate pentru a dezvolta sau îmbunătăți experiența utilizatorilor, sistemele și software-ul.

Dând clic pe ‘Sunt de acord’, permiteți utilizarea cookie-urilor menționate, a identificatorilor de dispozitiv, balizelor web sau altor tehnologii similare. Setările pot fi modificate din browser-ul dispozitivului dumneavoastră.

În anumite scopuri, interesele legitime pot prima asupra consimțământului. Puteți citi mai multe informații în acest sens în Politica privind Confidențialitatea Datelor și Cookie.